Location: Bessat
(45.8735°N, 1.9924°E)
Time: 20:46:15
(UTC+00:00)

Resurs 01 Rocket - Pass Details

Date: 11 May 2021
Orbit: 633 x 645 km, 97.9° (Epoch: 21 June)

Event Time Altitude Azimuth Distance (km) Brightness Sun altitude
Exits shadow 20:02:15 - 150° (SSE) 2,200 3.8 -8.2°
Reaches altitude 10° 20:02:39 10° 149° (SSE) 2,036 3.6 -8.2°
Maximum altitude 20:06:59 56° 73° (ENE) 772 1.9 -8.8°
Drops below altitude 10° 20:11:21 10° 355° (N) 2,047 4.9 -9.4°
Sets 20:13:36 0° 351° (N) 2,959 5.9 -9.7°
